Holland, MI

3:39 PM EST on February 20, 2017 (GMT -0500)
Tulip City

Weather History for KBIV - October, 2013

Change the Weather History Date:

Tuesday, October 1, 2013

  Actual Average Record
Temperature  
Mean Temperature 64 °F 58 °F  
Max Temperature 75 °F 67 °F 84 °F (1971)
Min Temperature 53 °F 48 °F 30 °F (1984)
Degree Days  
Heating Degree Days 1 8  
Month to date heating degree days 1 8  
Since 1 July heating degree days 133 138  
Cooling Degree Days 0 1  
Month to date cooling degree days 0 1  
Year to date cooling degree days 797 683  
Growing Degree Days 13 (Base 50)    
Moisture  
Dew Point 59 °F    
Average Humidity 84    
Maximum Humidity 100    
Minimum Humidity 68    
Precipitation  
Precipitation 0.00 in 0.10 in 0.95 in (1977)
Month to date precipitation 0.00 0.10  
Year to date precipitation 29.19 27.21  
Sea Level Pressure  
Sea Level Pressure 29.94 in    
Wind  
Wind Speed 11 mph (SSW)    
Max Wind Speed 24 mph    
Max Gust Speed 32 mph    
Visibility 8 miles    
Events      
T = Trace of Precipitation, MM = Missing Value Source: NWS Daily Summary

Daily Weather History Graph

Daily Weather History Graph

Search for Another Location

Airport or City:

Trip Planner

Search our weather history database for the weather conditions in past years. The results will help you decide how hot, cold, wet, or windy it might be!

Date:

Astronomy

Oct. 01, 2013 Rise Set
Actual Time 7:41 AM EDT 7:25 PM EDT
Civil Twilight 7:13 AM EDT 7:53 PM EDT
Nautical Twilight 6:40 AM EDT 8:26 PM EDT
Astronomical Twilight 6:07 AM EDT 8:59 PM EDT
Moon 4:11 AM EDT (10/1) 5:31 PM EDT (10/1)
Length of Visible Light 12h 39m
Length of Day
11h 43m
Waning Crescent, 12% of the Moon is Illuminated
Oct 1
Waning Crescent
Oct 4
New
Oct 11
First Quarter
Oct 18
Full
Oct 26
Last Quarter

Hourly Weather History & Observations

Time (EDT) Temp. Dew Point Humidity Pressure Visibility Wind Dir Wind Speed Gust Speed Precip Events Conditions
12:53 AM 55.0 °F 51.1 °F 86% 29.91 in 10.0 mi SSE 6.9 mph - N/A   Clear
1:53 AM 53.1 °F 50.0 °F 89% 29.92 in 10.0 mi SSE 5.8 mph - N/A   Clear
2:53 AM 54.0 °F 51.1 °F 90% 29.94 in 10.0 mi South 3.5 mph - N/A   Clear
3:53 AM 55.0 °F 52.0 °F 89% 29.94 in 10.0 mi South 4.6 mph - N/A   Clear
4:53 AM 55.9 °F 53.1 °F 90% 29.95 in 10.0 mi South 5.8 mph - N/A   Clear
5:53 AM 55.9 °F 53.1 °F 90% 29.95 in 10.0 mi South 5.8 mph - N/A   Clear
6:53 AM 55.9 °F 55.0 °F 97% 29.95 in 7.0 mi South 6.9 mph - 0.01 in   Clear
7:53 AM 57.9 °F 55.9 °F 93% 29.95 in 4.0 mi South 8.1 mph - N/A   Partly Cloudy
8:12 AM 59.0 °F 57.2 °F 94% 29.95 in 4.0 mi South 9.2 mph - N/A   Mostly Cloudy
8:19 AM 59.0 °F 57.2 °F 94% 29.95 in 3.0 mi South 6.9 mph - N/A   Mostly Cloudy
8:34 AM 60.8 °F 57.2 °F 88% 29.96 in 2.5 mi South 8.1 mph - N/A   Overcast
8:53 AM 60.1 °F 59.0 °F 96% 29.96 in 3.0 mi South 10.4 mph - N/A   Overcast
9:26 AM 62.6 °F 60.8 °F 94% 29.97 in 5.0 mi SSW 10.4 mph - N/A   Overcast
9:53 AM 64.0 °F 62.1 °F 93% 29.97 in 5.0 mi SSW 13.8 mph 24.2 mph N/A   Overcast
10:53 AM 64.0 °F 61.0 °F 90% 29.99 in 6.0 mi SSW 12.7 mph 23.0 mph N/A   Overcast
11:53 AM 64.9 °F 62.1 °F 90% 29.97 in 6.0 mi SSW 15.0 mph 23.0 mph N/A   Overcast
12:53 PM 66.9 °F 62.1 °F 84% 29.97 in 8.0 mi SSW 16.1 mph 24.2 mph N/A   Overcast
1:37 PM 68.0 °F 62.6 °F 83% 29.96 in 10.0 mi SSW 15.0 mph 25.3 mph N/A   Overcast
1:53 PM 68.0 °F 62.1 °F 81% 29.95 in 10.0 mi SSW 17.3 mph 24.2 mph N/A   Overcast
2:49 PM 69.8 °F 62.6 °F 78% 29.94 in 10.0 mi SSW 16.1 mph 26.5 mph N/A   Overcast
2:53 PM 69.1 °F 62.1 °F 78% 29.94 in 10.0 mi SSW 15.0 mph 25.3 mph N/A   Overcast
3:53 PM 71.1 °F 62.1 °F 73% 29.93 in 10.0 mi SSW 16.1 mph 27.6 mph N/A   Overcast
4:48 PM 73.4 °F 62.6 °F 69% 29.92 in 10.0 mi SSW 23.0 mph 31.1 mph N/A   Partly Cloudy
4:53 PM 73.9 °F 62.1 °F 66% 29.91 in 10.0 mi SSW 20.7 mph 31.1 mph N/A   Partly Cloudy
5:53 PM 73.9 °F 62.1 °F 66% 29.91 in 10.0 mi SW 15.0 mph 25.3 mph N/A   Clear
6:53 PM 72.0 °F 62.1 °F 71% 29.92 in 10.0 mi SW 17.3 mph 23.0 mph N/A   Clear
7:53 PM 71.1 °F 62.1 °F 73% 29.92 in 10.0 mi SW 9.2 mph 18.4 mph N/A   Clear
8:53 PM 71.1 °F 62.1 °F 73% 29.92 in 10.0 mi SSW 11.5 mph - N/A   Clear
9:53 PM 72.0 °F 62.1 °F 71% 29.92 in 10.0 mi SSW 11.5 mph - N/A   Clear
10:53 PM 72.0 °F 62.1 °F 71% 29.93 in 10.0 mi SW 12.7 mph - N/A   Scattered Clouds
11:53 PM 71.1 °F 62.1 °F 73% 29.94 in 10.0 mi SW 9.2 mph - N/A   Clear